Whippany, NJ

5:03 PM EST on December 06, 2016 (GMT -0500)
Morristown Municipal

Weather History for KMMU - April, 2013

Change the Weather History Date:

Thursday, April 25, 2013

  Actual Average Record
Temperature  
Mean Temperature 54 °F -  
Max Temperature 64 °F 62 °F 86 °F (1939)
Min Temperature 44 °F 41 °F 19 °F (1936)
Degree Days  
Heating Degree Days 11    
Growing Degree Days 4 (Base 50)    
Moisture  
Dew Point 32 °F    
Average Humidity 45    
Maximum Humidity 71    
Minimum Humidity 19    
Precipitation  
Precipitation 0.00 in - - ()
Sea Level Pressure  
Sea Level Pressure 30.09 in    
Wind  
Wind Speed 10 mph (WNW)    
Max Wind Speed 20 mph    
Max Gust Speed 30 mph    
Visibility 10 miles    
Events Rain    
Averages and records for this station are not official NWS values.
T = Trace of Precipitation, MM = Missing Value Source: NWS Daily Summary

Daily Weather History Graph

Daily Weather History Graph

Search for Another Location

Airport or City:

Trip Planner

Search our weather history database for the weather conditions in past years. The results will help you decide how hot, cold, wet, or windy it might be!

Date:

Astronomy

Apr. 25, 2013 Rise Set
Actual Time 6:03 AM EDT 7:47 PM EDT
Civil Twilight 5:34 AM EDT 8:17 PM EDT
Nautical Twilight 4:59 AM EDT 8:52 PM EDT
Astronomical Twilight 4:21 AM EDT 9:30 PM EDT
Moon 7:58 PM EDT (4/25) 5:45 AM EDT (4/25)
Length of Visible Light 14h 42m
Length of Day
13h 44m
Full, 100% of the Moon is Illuminated
Apr 25
Full
Apr 25
Full
May 2
Last Quarter
May 9
New
May 18
First Quarter

Hourly Weather History & Observations

Time (EDT) Temp. Windchill Dew Point Humidity Pressure Visibility Wind Dir Wind Speed Gust Speed Precip Events Conditions
12:15 AM 62.6 °F - 51.8 °F 68% 29.86 in 10.0 mi SW 4.6 mph - N/A   Overcast
12:35 AM 62.6 °F - 51.8 °F 68% 29.87 in 10.0 mi SSW 6.9 mph - N/A   Overcast
12:55 AM 62.6 °F - 51.8 °F 68% 29.91 in 10.0 mi West 10.4 mph - N/A Rain Light Rain
1:15 AM 62.6 °F - 50.0 °F 63% 29.91 in 10.0 mi WNW 8.1 mph 18.4 mph N/A   Overcast
1:35 AM 62.6 °F - 46.4 °F 55% 29.91 in 10.0 mi West 17.3 mph 24.2 mph N/A   Overcast
1:55 AM 60.8 °F - 39.2 °F 45% 29.92 in 10.0 mi West 15.0 mph 27.6 mph N/A   Overcast
2:15 AM 59.0 °F - 41.0 °F 51% 29.93 in 10.0 mi West 11.5 mph - N/A   Overcast
2:35 AM 57.2 °F - 41.0 °F 55% 29.94 in 10.0 mi West 13.8 mph - N/A   Overcast
2:55 AM 57.2 °F - 41.0 °F 55% 29.95 in 10.0 mi West 12.7 mph 18.4 mph N/A   Mostly Cloudy
3:15 AM 55.4 °F - 39.2 °F 54% 29.96 in 10.0 mi West 8.1 mph 19.6 mph N/A   Overcast
3:35 AM 55.4 °F - 37.4 °F 51% 29.98 in 10.0 mi NNW 19.6 mph 28.8 mph N/A   Overcast
3:55 AM 53.6 °F - 33.8 °F 47% 30.00 in 10.0 mi NW 16.1 mph 27.6 mph N/A   Overcast
4:15 AM 51.8 °F - 30.2 °F 44% 30.02 in 10.0 mi NW 9.2 mph 19.6 mph N/A   Overcast
4:35 AM 51.8 °F - 30.2 °F 44% 30.04 in 10.0 mi WNW 17.3 mph 24.2 mph N/A   Overcast
4:55 AM 50.0 °F - 30.2 °F 47% 30.05 in 10.0 mi NW 11.5 mph 23.0 mph N/A   Overcast
5:15 AM 50.0 °F - 30.2 °F 47% 30.07 in 10.0 mi NW 11.5 mph 16.1 mph N/A   Overcast
5:35 AM 50.0 °F - 30.2 °F 47% 30.09 in 10.0 mi NNW 8.1 mph 17.3 mph N/A   Mostly Cloudy
5:55 AM 48.2 °F - 30.2 °F 50% 30.11 in 10.0 mi WNW 15.0 mph 20.7 mph N/A   Scattered Clouds
6:15 AM 48.2 °F - 30.2 °F 50% 30.13 in 10.0 mi NW 13.8 mph 18.4 mph N/A   Clear
6:35 AM 46.4 °F 40.7 °F 28.4 °F 50% 30.13 in 10.0 mi NW 12.7 mph 25.3 mph N/A   Clear
6:45 AM 44.6 °F 37.4 °F 28.4 °F 53% 30.14 in 10.0 mi NNW 16.1 mph 29.9 mph N/A   Partly Cloudy
7:45 AM 46.4 °F 40.1 °F 28.4 °F 50% 30.18 in 10.0 mi NW 15.0 mph 28.8 mph N/A   Scattered Clouds
8:45 AM 48.2 °F - 26.6 °F 43% 30.19 in 10.0 mi NNW 13.8 mph 25.3 mph N/A   Scattered Clouds
9:45 AM 51.8 °F - 26.6 °F 38% 30.20 in 10.0 mi North 16.1 mph 24.2 mph N/A   Scattered Clouds
10:45 AM 53.6 °F - 23.0 °F 30% 30.20 in 10.0 mi North 13.8 mph 23.0 mph N/A   Scattered Clouds
11:45 AM 53.6 °F - 24.8 °F 33% 30.21 in 10.0 mi WNW 5.8 mph 13.8 mph N/A   Partly Cloudy
12:45 PM 57.2 °F - 23.0 °F 27% 30.19 in 10.0 mi Calm Calm - N/A   Partly Cloudy
1:45 PM 59.0 °F - 23.0 °F 25% 30.18 in 10.0 mi WNW 9.2 mph - N/A   Partly Cloudy
2:45 PM 62.6 °F - 23.0 °F 22% 30.17 in 10.0 mi North 5.8 mph - N/A   Clear
3:45 PM 64.4 °F - 21.2 °F 19% 30.16 in 10.0 mi ENE 3.5 mph - N/A   Clear
4:45 PM 64.4 °F - 21.2 °F 19% 30.15 in 10.0 mi North 5.8 mph - N/A   Clear
5:45 PM 64.4 °F - 23.0 °F 21% 30.16 in 10.0 mi North 6.9 mph - N/A   Clear
6:45 PM 62.6 °F - 19.4 °F 19% 30.17 in 10.0 mi WSW 9.2 mph - N/A   Clear
7:45 PM 60.8 °F - 23.0 °F 23% 30.19 in 10.0 mi WSW 5.8 mph - N/A   Clear
8:45 PM 57.2 °F - 24.8 °F 29% 30.21 in 10.0 mi WSW 5.8 mph - N/A   Clear
9:45 PM 55.4 °F - 24.8 °F 31% 30.24 in 10.0 mi WSW 6.9 mph - N/A   Clear
10:55 PM 46.4 °F - 35.6 °F 66% 30.25 in 10.0 mi Calm Calm - N/A   Clear
11:15 PM 46.4 °F - 35.6 °F 66% 30.26 in 10.0 mi Calm Calm - N/A   Clear
11:35 PM 46.4 °F - 37.4 °F 71% 30.26 in 10.0 mi Calm Calm - N/A   Clear
11:55 PM 44.6 °F - 35.6 °F 71% 30.26 in 10.0 mi Calm Calm - N/A   Clear